Weather History for Parrsboro, NS

Change the Weather History Date:

Friday, January 3, 2014

  Actual Average Record
Temperature  
Mean Temperature 1 °F -  
Max Temperature 11 °F - - ()
Min Temperature -9 °F - - ()
Degree Days  
Heating Degree Days 64    
Moisture  
Dew Point -0 °F    
Average Humidity 85    
Maximum Humidity 91    
Minimum Humidity 71    
Precipitation  
Precipitation 0.16 in - - ()
Sea Level Pressure  
Sea Level Pressure 29.84 in    
Wind  
Wind Speed 8 mph ()    
Max Wind Speed 20 mph    
Max Gust Speed 32 mph    
T = Trace of Precipitation, MM = Missing Value Source: Averaged Metar Reports

Daily Weather History Graph

Daily Weather History Graph

Search for Another Location

Airport:

Trip Planner

Search our weather history database for the weather conditions in past years. The results will help you decide how hot, cold, wet, or windy it might be!

Date:

Astronomy

Jan. 03, 2014 Rise Set
Actual Time 7:57 AM AST 4:46 PM AST
Civil Twilight 7:23 AM AST 5:20 PM AST
Nautical Twilight 6:46 AM AST 5:58 PM AST
Astronomical Twilight 6:10 AM AST 6:33 PM AST
Moon 9:11 AM AST (1/3) 8:00 PM AST (1/3)
Length of Visible Light 9h 57m
Length of Day
8h 49m
Waxing Crescent, 7% of the Moon is Illuminated
Jan 3
Waxing Crescent
Jan 7
First Quarter
Jan 16
Full
Jan 24
Last Quarter
Jan 30
New

Hourly Weather History & Observations

Time (AST) Temp. Windchill Dew Point Humidity Pressure Visibility Wind Dir Wind Speed Gust Speed Precip Events Conditions
12:00 AM -6.7 °F -23.5 °F -11.7 °F 79% 30.17 in - NNE 9.2 mph - N/A   Unknown
1:00 AM -6.0 °F -14.7 °F -10.7 °F 80% 30.10 in - NE 3.5 mph - N/A   Unknown
2:00 AM -5 °F - -10 °F 71% 30.04 in - SSW 3.5 mph - -  
2:00 AM -4.9 °F - -9.6 °F 80% 30.04 in - WSW 1.2 mph - 0.01 in   Unknown
3:00 AM -3.3 °F -18.2 °F -7.6 °F 82% 30.03 in - NNE 8.1 mph - 0.01 in   Unknown
4:00 AM -2.2 °F -15.6 °F -6.0 °F 84% 29.97 in - NNE 6.9 mph - 0.02 in   Unknown
5:00 AM -0.4 °F -8.3 °F -4.2 °F 84% 29.92 in - SE 3.5 mph - 0.01 in   Unknown
6:00 AM 1.8 °F -10.8 °F -1.7 °F 86% 29.89 in - North 6.9 mph - 0.02 in   Unknown
7:00 AM 3.6 °F -9.8 °F 0.5 °F 87% 29.80 in - NNE 8.1 mph - 0.01 in   Unknown
8:00 AM 6 °F - 3 °F 80% 29.78 in - North 4.6 mph - -  
8:00 AM 5.7 °F -3.2 °F 2.8 °F 88% 29.78 in - North 4.6 mph - 0.02 in   Unknown
9:00 AM 8.2 °F -0.3 °F 5.5 °F 89% 29.75 in - NE 4.6 mph - 0.03 in   Unknown
10:00 AM 9.3 °F -4.6 °F 6.4 °F 88% 29.68 in - NNE 10.4 mph - 0.03 in   Unknown
11:00 AM 9.9 °F -6.7 °F 7.5 °F 90% 29.68 in - North 15.0 mph 26.5 mph 0.03 in   Unknown
12:00 PM 10.2 °F -4.3 °F 8.1 °F 91% 29.63 in - North 11.5 mph 26.5 mph 0.04 in   Unknown
1:00 PM 10.9 °F -7.0 °F 8.8 °F 91% 29.60 in - North 18.4 mph 28.8 mph 0.02 in   Unknown
2:00 PM 11 °F - 9 °F 87% 29.62 in - North 18.4 mph - -  
2:00 PM 11.1 °F -5.7 °F 9.0 °F 91% 29.62 in - North 16.1 mph 29.9 mph 0.02 in   Unknown
3:00 PM 10.4 °F -6.0 °F 8.2 °F 91% 29.62 in - North 15.0 mph 32.2 mph 0.01 in   Unknown
4:00 PM 8.2 °F -9.4 °F 5.7 °F 89% 29.65 in - North 16.1 mph 28.8 mph 0.01 in   Unknown
5:00 PM 5.0 °F -15.2 °F 2.1 °F 88% 29.70 in - North 19.6 mph 29.9 mph 0.01 in   Unknown
6:00 PM 2.7 °F -14.5 °F -0.8 °F 86% 29.76 in - NNW 12.7 mph 21.9 mph N/A   Unknown
7:00 PM 1.2 °F -17.1 °F -2.2 °F 86% 29.83 in - NNW 13.8 mph 24.2 mph N/A   Unknown
8:00 PM -0 °F - -4 °F 75% 29.91 in - NNW 13.8 mph - -  
8:00 PM -0.2 °F -18.2 °F -4.0 °F 84% 29.91 in - NNW 12.7 mph 23.0 mph N/A   Unknown
9:00 PM -0.8 °F -15.1 °F -4.9 °F 83% 29.95 in - NW 8.1 mph - N/A   Unknown
10:00 PM -1.7 °F -13.5 °F -5.8 °F 83% 30.00 in - WNW 5.8 mph - N/A   Unknown
11:00 PM -2.0 °F -15.4 °F -6.3 °F 82% 30.04 in - WNW 6.9 mph - N/A   Unknown